FW9562 Weather Reports


Display with metric or nautical units.
time (UTC)temp
F
wind
direction
speed
MPH
gust
MPH
rain 1hr
in
rain 24hr
in
rain mn
in
humidity
%
barometer
mb
20260906103752 70 46 4.0 5.0 0.00 0.00 0.00 99 1012.3
20260906103252 70 23 4.0 7.0 0.00 0.00 0.00 99 1012.3
20260906102748 70 76 2.0 5.0 0.00 0.00 0.00 99 1012.3
20260906102246 70 29 4.0 4.0 0.00 0.00 0.00 99 1012.5
20260906101742 70 35 3.0 3.0 0.00 0.00 0.00 99 1012.2
20260906101236 70 21 3.0 6.0 0.00 0.00 0.00 99 1012.5
20260906100732 70 25 3.0 5.0 0.00 0.00 0.00 99 1012.1
20260906100231 70 68 2.0 2.0 0.00 0.00 0.00 99 1012.1
20260906095727 70 63 2.0 3.0 0.00 0.00 0.00 99 1012.2
20260906095222 70 52 2.0 3.0 0.00 0.00 0.00 99 1012.0
20260906094721 70 69 2.0 2.0 0.00 0.00 0.00 99 1012.2
20260906094216 69 60 2.0 3.0 0.00 0.00 0.00 99 1011.9
20260906093713 69 60 2.0 3.0 0.00 0.00 0.00 99 1012.0
20260906093208 70 46 2.0 4.0 0.00 0.00 0.00 99 1011.8
20260906092703 70 46 3.0 3.0 0.00 0.00 0.00 99 1011.8
20260906092202 69 42 3.0 3.0 0.00 0.00 0.00 99 1011.7
20260906091658 70 55 2.0 3.0 0.00 0.00 0.00 99 1011.6
20260906091155 70 30 3.0 3.0 0.00 0.00 0.00 99 1011.5
20260906090651 69 29 3.0 4.0 0.00 0.00 0.00 99 1011.4
20260906090150 69 38 2.0 3.0 0.00 0.00 0.00 99 1011.7
20260906085649 69 45 3.0 4.0 0.00 0.00 0.00 99 1011.5
20260906085148 69 22 3.0 3.0 0.00 0.00 0.00 99 1011.5
20260906084643 69 71 2.0 3.0 0.00 0.00 0.00 99 1011.6
20260906084143 69 47 3.0 4.0 0.00 0.00 0.00 99 1011.6
20260906083638 68 36 4.0 4.0 0.00 0.00 0.00 99 1011.5
20260906083133 68 60 2.0 4.0 0.00 0.00 0.00 99 1011.4
20260906082628 69 14 3.0 5.0 0.00 0.00 0.00 99 1011.3
20260906082124 69 40 3.0 5.0 0.00 0.00 0.00 99 1011.2
20260906081620 69 12 5.0 6.0 0.00 0.00 0.00 99 1011.3
20260906081115 68 14 3.0 4.0 0.00 0.00 0.00 99 1010.9
20260906080611 68 63 1.0 2.0 0.00 0.00 0.00 99 1010.9
20260906080107 68 33 2.0 2.0 0.00 0.00 0.00 99 1010.9
20260906075601 68 39 2.0 2.0 0.00 0.00 0.00 99 1011.0
20260906075055 68 42 1.0 1.0 0.00 0.00 0.00 99 1011.0
20260906074551 68 30 0.0 1.0 0.00 0.00 0.00 99 1010.8
20260906074049 68 31 0.0 1.0 0.00 0.00 0.00 99 1011.1
20260906073544 69 70 0.0 1.0 0.00 0.00 0.00 99 1010.9
20260906073040 68 55 0.0 0.0 0.00 0.00 0.00 99 1010.9
20260906072535 68 34 0.0 1.0 0.00 0.00 0.00 99 1010.9
20260906072031 69 41 2.0 2.0 0.00 0.00 0.00 99 1011.1
20260906071527 68 32 2.0 3.0 0.00 0.00 0.00 99 1011.0
20260906071022 69 36 2.0 3.0 0.00 0.00 0.00 99 1010.9
20260906070518 69 61 1.0 3.0 0.00 0.00 0.00 99 1011.0
20260906070014 69 19 2.0 4.0 0.00 0.00 0.00 99 1011.0
20260906065513 68 22 2.0 3.0 0.00 0.00 0.00 99 1011.1
20260906065009 68 60 2.0 2.0 0.00 0.00 0.00 99 1011.1
20260906064505 68 43 1.0 2.0 0.00 0.00 0.00 99 1011.2
20260906064000 68 41 2.0 2.0 0.00 0.00 0.00 99 1011.2
20260906063455 68 39 1.0 2.0 0.00 0.00 0.00 99 1011.4
20260906062949 68 59 1.0 2.0 0.00 0.00 0.00 99 1011.2
20260906062444 68 49 0.0 0.0 0.00 0.00 0.00 99 1011.4
20260906061939 68 347 0.0 1.0 0.00 0.00 0.00 99 1011.3
20260906061435 68 40 0.0 1.0 0.00 0.00 0.00 99 1011.2
20260906060930 68 30 0.0 1.0 0.00 0.00 0.00 99 1011.0
20260906060427 68 55 2.0 2.0 0.00 0.00 0.00 99 1011.3
20260906055923 68 72 1.0 2.0 0.00 0.00 0.00 99 1011.2
20260906055419 68 58 1.0 2.0 0.00 0.00 0.00 99 1011.3
20260906054914 68 36 2.0 3.0 0.00 0.00 0.00 99 1011.4
20260906054408 68 60 1.0 2.0 0.00 0.00 0.00 99 1011.5
20260906053905 68 53 2.0 2.0 0.00 0.00 0.00 99 1011.6
20260906053400 68 46 2.0 2.0 0.00 0.00 0.00 99 1011.6
20260906052856 68 51 2.0 3.0 0.00 0.00 0.00 99 1011.8
20260906052352 68 46 2.0 2.0 0.00 0.00 0.00 99 1011.7
20260906051849 68 56 1.0 2.0 0.00 0.00 0.00 99 1011.7
20260906051348 69 78 0.0 1.0 0.00 0.00 0.00 99 1012.0
20260906050844 69 343 0.0 1.0 0.00 0.00 0.00 99 1012.1
20260906050339 69 44 0.0 1.0 0.00 0.00 0.00 99 1012.1
20260906045838 69 35 0.0 0.0 0.00 0.00 0.00 99 1012.1
20260906045332 69 50 0.0 1.0 0.00 0.00 0.00 99 1012.0
20260906044828 69 32 1.0 2.0 0.00 0.00 0.00 99 1012.3
20260906044323 69 44 2.0 2.0 0.00 0.00 0.00 99 1012.3
20260906043819 69 52 1.0 2.0 0.00 0.00 0.00 99 1012.0
20260906043315 69 352 0.0 1.0 0.00 0.00 0.00 99 1012.2
20260906042814 69 32 0.0 1.0 0.00 0.00 0.00 99 1012.3
20260906042314 69 22 0.0 1.0 0.00 0.00 0.00 99 1012.5
20260906041809 69 40 1.0 2.0 0.00 0.00 0.00 99 1012.6
20260906041304 69 8 0.0 1.0 0.00 0.00 0.00 99 1012.5
20260906040759 69 22 0.0 0.0 0.00 0.00 0.00 99 1012.3
20260906040255 69 37 0.0 0.0 0.00 0.24 0.24 99 1012.4
20260906035750 69 44 0.0 1.0 0.00 0.24 0.24 99 1012.4
20260906035246 69 321 0.0 0.0 0.00 0.24 0.24 99 1012.4
20260906034746 69 50 0.0 1.0 0.00 0.24 0.24 99 1012.4
20260906034241 69 60 0.0 2.0 0.00 0.24 0.24 99 1012.7
20260906033737 69 50 0.0 1.0 0.00 0.24 0.24 99 1012.6
20260906033236 69 67 1.0 2.0 0.00 0.24 0.24 99 1012.4
20260906032733 69 44 1.0 1.0 0.00 0.24 0.24 99 1012.4
20260906032232 69 51 0.0 1.0 0.00 0.24 0.24 99 1012.4
20260906031728 69 50 0.0 0.0 0.00 0.24 0.24 99 1012.3
20260906031224 69 37 0.0 1.0 0.00 0.24 0.24 99 1012.2
20260906030723 69 73 0.0 2.0 0.00 0.24 0.24 99 1012.1
20260906030218 69 86 1.0 2.0 0.00 0.24 0.24 99 1012.2
20260906025717 69 50 0.0 0.0 0.00 0.24 0.24 99 1012.4
20260906025212 69 46 1.0 2.0 0.00 0.24 0.24 99 1012.1
20260906024711 69 354 0.0 1.0 0.00 0.24 0.24 99 1012.2
20260906024210 69 352 0.0 1.0 0.00 0.24 0.24 99 1012.4
20260906023706 69 46 0.0 1.0 0.00 0.24 0.24 99 1012.0
20260906023201 69 339 0.0 0.0 0.00 0.24 0.24 99 1012.2
20260906022656 69 315 0.0 1.0 0.00 0.24 0.24 99 1012.0
20260906022152 69 304 0.0 0.0 0.00 0.24 0.24 99 1012.1
20260906021647 69 55 0.0 0.0 0.00 0.24 0.24 99 1012.2
20260906021146 69 53 0.0 1.0 0.00 0.24 0.24 99 1011.9
20260906020641 69 54 1.0 1.0 0.00 0.24 0.24 99 1011.9
20260906020136 69 37 0.0 0.0 0.00 0.24 0.24 99 1012.0
20260906015630 70 37 2.0 2.0 0.00 0.24 0.24 99 1012.0
20260906015128 70 20 1.0 2.0 0.00 0.24 0.24 99 1011.9
20260906014623 70 298 2.0 2.0 0.00 0.24 0.24 99 1011.6
20260906014119 70 44 2.0 3.0 0.00 0.24 0.24 99 1011.9
20260906013614 70 50 1.0 2.0 0.00 0.24 0.24 99 1011.8
20260906013110 70 54 2.0 2.0 0.00 0.24 0.24 99 1012.0
20260906012604 70 89 2.0 3.0 0.00 0.24 0.24 99 1011.8
20260906012059 69 85 2.0 3.0 0.00 0.24 0.24 99 1012.1
20260906011555 69 93 2.0 2.0 0.00 0.24 0.24 99 1012.1
20260906011055 69 81 2.0 2.0 0.00 0.24 0.24 99 1011.6
20260906010550 70 62 1.0 2.0 0.00 0.24 0.24 99 1011.8
20260906010047 70 46 1.0 1.0 0.00 0.24 0.24 99 1011.6
20260906005546 70 17 0.0 1.0 0.00 0.24 0.24 99 1011.5
20260906005045 70 37 0.0 1.0 0.00 0.24 0.24 99 1011.5
20260906004545 69 81 1.0 2.0 0.00 0.24 0.24 99 1011.4
20260906004039 69 71 1.0 2.0 0.00 0.24 0.24 99 1011.3
20260906003534 70 68 2.0 2.0 0.00 0.24 0.24 99 1011.3
20260906003031 70 58 1.0 2.0 0.00 0.24 0.24 99 1011.3
20260906002525 70 66 0.0 1.0 0.00 0.24 0.24 99 1011.2
20260906002020 70 66 0.0 1.0 0.00 0.24 0.24 99 1010.9
20260906001515 70 32 0.0 2.0 0.00 0.24 0.24 99 1011.1
20260906001009 70 81 2.0 2.0 0.00 0.24 0.24 99 1011.1
20260906000506 71 45 1.0 1.0 0.00 0.24 0.24 99 1010.8
20260906000000 71 113 0.0 0.0 0.00 0.24 0.24 99 1010.9
20260905235500 71 42 0.0 2.0 0.00 0.24 0.24 99 1010.9
20260905234955 71 53 2.0 2.0 0.00 0.24 0.24 99 1011.0
20260905234450 71 69 1.0 2.0 0.00 0.24 0.24 99 1010.8
20260905233944 71 71 1.0 2.0 0.00 0.24 0.24 99 1010.9
20260905233440 71 86 0.0 1.0 0.00 0.24 0.24 99 1010.9
20260905232938 71 84 1.0 2.0 0.00 0.24 0.24 99 1010.7
20260905232435 71 79 1.0 1.0 0.00 0.24 0.24 99 1010.2
20260905231930 71 327 0.0 1.0 0.00 0.24 0.24 99 1010.6
20260905231426 71 66 0.0 0.0 0.00 0.24 0.24 99 1010.5
20260905230922 71 69 1.0 1.0 0.00 0.24 0.24 99 1010.3
20260905230421 71 50 0.0 0.0 0.00 0.24 0.24 99 1010.4
20260905225919 72 56 0.0 1.0 0.00 0.24 0.24 99 1010.1
20260905225414 71 173 0.0 0.0 0.00 0.24 0.24 99 1010.2
20260905224909 71 50 0.0 0.0 0.00 0.24 0.24 99 1010.1
20260905224405 72 50 0.0 1.0 0.00 0.24 0.24 99 1010.1
20260905223900 72 62 0.0 1.0 0.00 0.24 0.24 99 1010.2
20260905223358 72 80 0.0 2.0 0.00 0.24 0.24 99 1010.0
20260905222857 72 37 0.0 2.0 0.00 0.24 0.24 99 1009.8
20260905222356 72 53 0.0 0.0 0.00 0.24 0.24 99 1010.0
20260905221853 72 62 0.0 1.0 0.00 0.24 0.24 99 1010.4
20260905221349 72 325 0.0 1.0 0.00 0.24 0.24 99 1010.5
20260905220844 72 326 0.0 2.0 0.00 0.24 0.24 99 1010.7
20260905220341 71 291 1.0 3.0 0.00 0.24 0.24 99 1010.5
20260905215840 72 323 2.0 2.0 0.00 0.24 0.24 99 1011.1
20260905215336 72 50 0.0 1.0 0.00 0.24 0.24 99 1011.0
20260905214832 71 20 1.0 2.0 0.00 0.24 0.24 99 1011.2
20260905214327 71 32 0.0 2.0 0.00 0.24 0.24 99 1011.3
20260905213822 71 322 0.0 0.0 0.00 0.24 0.24 99 1011.0
20260905213318 71 61 0.0 2.0 0.00 0.24 0.24 99 1011.0
20260905212813 71 53 2.0 2.0 0.00 0.24 0.24 99 1010.8
20260905212312 71 60 0.0 2.0 0.00 0.24 0.24 99 1010.7
20260905211807 71 32 0.0 3.0 0.00 0.24 0.24 99 1010.9
20260905211302 71 32 0.0 3.0 0.00 0.24 0.24 99 1010.9
20260905210759 71 44 0.0 1.0 0.02 0.24 0.24 99 1010.7
20260905210258 71 54 1.0 2.0 0.02 0.24 0.24 99 1010.6
20260905205757 71 77 2.0 4.0 0.00 0.23 0.23 99 1010.5
20260905205252 71 60 1.0 2.0 0.02 0.23 0.23 99 1010.3
20260905204751 71 60 1.0 2.0 0.02 0.23 0.23 99 1010.3
20260905204248 71 54 0.0 1.0 0.02 0.23 0.23 99 1010.4
20260905203746 71 37 0.0 2.0 0.02 0.22 0.22 99 1010.4
20260905203242 71 15 2.0 3.0 0.02 0.22 0.22 99 1010.1
20260905202738 71 44 0.0 1.0 0.02 0.22 0.22 99 1009.9
20260905202232 71 315 0.0 2.0 0.02 0.22 0.22 99 1010.1
20260905201532 71 19 3.0 4.0 0.47 0.22 0.22 95 1010.3
20260905201031 71 19 3.0 4.0 0.47 0.22 0.22 95 1010.3
20260905200527 72 65 0.0 4.0 0.92 0.22 0.22 94 1010.0
20260905200026 76 311 4.0 9.0 0.38 0.06 0.06 84 1011.6
20260905195520 76 311 4.0 9.0 0.38 0.06 0.06 84 1011.6
20260905195015 85 301 5.0 8.0 0.00 0.00 0.00 69 1011.1
20260905194510 88 26 4.0 16.0 0.00 0.00 0.00 67 1010.5
20260905194009 89 7 0.0 0.0 0.00 0.00 0.00 69 1010.6
20260905193504 90 348 2.0 2.0 0.00 0.00 0.00 69 1010.4
20260905192959 90 334 0.0 2.0 0.00 0.00 0.00 65 1010.0
20260905192454 91 231 2.0 3.0 0.00 0.00 0.00 60 1010.0
20260905191950 92 297 3.0 3.0 0.00 0.00 0.00 61 1010.4
20260905191444 93 307 1.0 2.0 0.00 0.00 0.00 58 1010.3
20260905190943 93 287 2.0 3.0 0.00 0.00 0.00 61 1010.1
20260905190441 93 286 1.0 2.0 0.00 0.00 0.00 62 1009.7
20260905185940 94 312 2.0 4.0 0.00 0.00 0.00 57 1009.8
20260905185435 94 284 0.0 2.0 0.00 0.00 0.00 60 1009.5
20260905184934 95 262 2.0 3.0 0.00 0.00 0.00 56 1009.8
20260905184429 95 28 1.0 3.0 0.00 0.00 0.00 58 1010.1
20260905183928 95 22 4.0 9.0 0.00 0.00 0.00 54 1010.3
20260905183422 96 9 0.0 3.0 0.00 0.00 0.00 59 1010.3
20260905182918 95 11 3.0 6.0 0.00 0.00 0.00 55 1010.2
20260905182416 94 5 4.0 4.0 0.00 0.00 0.00 58 1010.6
20260905181912 94 339 0.0 3.0 0.00 0.00 0.00 58 1010.7
20260905181412 94 282 0.0 4.0 0.00 0.00 0.00 61 1010.9
20260905180912 94 226 2.0 2.0 0.00 0.00 0.00 58 1010.9
20260905180406 95 264 1.0 3.0 0.00 0.00 0.00 57 1011.1
20260905175901 95 219 2.0 4.0 0.00 0.00 0.00 56 1011.1
20260905175401 94 191 0.0 1.0 0.00 0.00 0.00 59 1011.0
20260905174856 94 229 0.0 1.0 0.00 0.00 0.00 60 1011.1
20260905174352 94 251 2.0 4.0 0.00 0.00 0.00 59 1011.4
20260905173847 95 306 1.0 5.0 0.00 0.00 0.00 54 1011.4
20260905173343 95 115 1.0 3.0 0.00 0.00 0.00 60 1011.4
20260905172838 95 298 2.0 5.0 0.00 0.00 0.00 57 1011.8
20260905172336 95 236 3.0 4.0 0.00 0.00 0.00 61 1011.8
20260905171832 94 99 2.0 3.0 0.00 0.00 0.00 57 1012.0
20260905171329 95 292 2.0 3.0 0.00 0.00 0.00 58 1012.1
20260905170825 94 212 0.0 3.0 0.00 0.00 0.00 61 1011.9
20260905170320 94 231 1.0 4.0 0.00 0.00 0.00 59 1012.1
20260905165819 93 212 4.0 6.0 0.00 0.00 0.00 58 1012.3
20260905165315 93 219 1.0 3.0 0.00 0.00 0.00 58 1012.1
20260905164815 93 222 1.0 4.0 0.00 0.00 0.00 59 1012.4
20260905164310 93 284 2.0 5.0 0.00 0.00 0.00 59 1012.3
20260905163805 93 290 4.0 5.0 0.00 0.00 0.00 60 1012.4
20260905163301 93 245 0.0 5.0 0.00 0.00 0.00 59 1012.5
20260905162757 93 209 2.0 3.0 0.00 0.00 0.00 60 1012.5
20260905162257 93 306 1.0 4.0 0.00 0.00 0.00 60 1012.4
20260905161751 93 295 2.0 3.0 0.00 0.00 0.00 60 1012.6
20260905161250 93 298 0.0 3.0 0.00 0.00 0.00 59 1012.5
20260905160749 92 254 1.0 2.0 0.00 0.00 0.00 62 1012.5
20260905160243 92 349 2.0 6.0 0.00 0.00 0.00 62 1012.6
20260905155738 92 253 3.0 3.0 0.00 0.00 0.00 65 1013.0
20260905155237 92 267 1.0 2.0 0.00 0.00 0.00 63 1012.7
20260905154731 92 224 0.0 2.0 0.00 0.00 0.00 65 1012.8
20260905154227 91 214 1.0 2.0 0.00 0.00 0.00 66 1012.9
20260905153722 92 225 1.0 2.0 0.00 0.00 0.00 66 1013.1
20260905153219 92 268 2.0 3.0 0.00 0.00 0.00 63 1013.2
20260905152713 91 289 2.0 3.0 0.00 0.00 0.00 63 1013.1
20260905152207 91 264 0.0 2.0 0.00 0.00 0.00 66 1013.0
20260905151707 90 300 2.0 3.0 0.00 0.00 0.00 64 1013.0
20260905151203 90 214 1.0 3.0 0.00 0.00 0.00 61 1013.0
20260905150658 90 327 2.0 3.0 0.00 0.00 0.00 63 1013.1
20260905150156 89 348 2.0 2.0 0.00 0.00 0.00 66 1013.3
20260905145654 89 303 3.0 4.0 0.00 0.00 0.00 65 1013.4
20260905145149 89 263 0.0 2.0 0.00 0.00 0.00 69 1013.3
20260905144643 88 266 1.0 3.0 0.00 0.00 0.00 67 1013.6
20260905144143 87 229 2.0 3.0 0.00 0.00 0.00 66 1013.0
20260905143637 87 214 1.0 4.0 0.00 0.00 0.00 67 1013.4
20260905143132 87 293 2.0 4.0 0.00 0.00 0.00 65 1013.1
20260905142630 87 302 2.0 2.0 0.00 0.00 0.00 68 1013.1
20260905142131 87 291 2.0 3.0 0.00 0.00 0.00 71 1013.1
20260905141630 87 298 2.0 4.0 0.00 0.00 0.00 68 1013.1
20260905141127 86 260 2.0 3.0 0.00 0.00 0.00 71 1013.0
20260905140622 86 247 2.0 3.0 0.00 0.00 0.00 71 1013.1
20260905140121 86 344 0.0 3.0 0.00 0.00 0.00 72 1013.2
20260905135616 85 7 0.0 3.0 0.00 0.00 0.00 72 1013.0
20260905135112 85 265 3.0 3.0 0.00 0.00 0.00 76 1012.9
20260905134607 84 274 1.0 5.0 0.00 0.00 0.00 74 1013.2
20260905134105 84 280 3.0 3.0 0.00 0.00 0.00 79 1013.1
20260905133601 83 266 2.0 2.0 0.00 0.00 0.00 80 1013.0
20260905133101 83 218 1.0 3.0 0.00 0.00 0.00 78 1013.2
20260905132600 83 245 1.0 3.0 0.00 0.00 0.00 80 1013.0
20260905132055 82 227 2.0 3.0 0.00 0.00 0.00 81 1013.2
20260905131550 82 256 1.0 3.0 0.00 0.00 0.00 83 1013.3
20260905131046 82 269 1.0 3.0 0.00 0.00 0.00 84 1013.1
20260905130545 81 255 1.0 3.0 0.00 0.00 0.00 84 1013.4
20260905130040 81 241 1.0 2.0 0.00 0.00 0.00 85 1013.4
20260905125539 80 202 0.0 2.0 0.00 0.00 0.00 84 1013.2
20260905125035 80 202 0.0 3.0 0.00 0.00 0.00 85 1013.3
20260905124532 80 296 0.0 1.0 0.00 0.00 0.00 86 1013.5
20260905124027 80 269 0.0 2.0 0.00 0.00 0.00 87 1013.2
20260905123523 79 205 0.0 1.0 0.00 0.00 0.00 87 1013.6
20260905123019 79 142 0.0 0.0 0.00 0.00 0.00 89 1013.2
20260905122513 78 186 0.0 1.0 0.00 0.00 0.00 89 1013.1
20260905122009 78 140 1.0 2.0 0.00 0.00 0.00 89 1013.2
20260905121509 78 164 0.0 1.0 0.00 0.00 0.00 90 1013.3
20260905121003 77 256 0.0 0.0 0.00 0.00 0.00 91 1013.2
20260905120457 77 311 0.0 1.0 0.00 0.00 0.00 93 1013.1
20260905115952 76 323 1.0 1.0 0.00 0.00 0.00 94 1013.1
20260905115451 76 303 2.0 2.0 0.00 0.00 0.00 95 1013.0
20260905114946 76 322 0.0 2.0 0.00 0.00 0.00 95 1013.1
20260905114446 75 0 0.0 1.0 0.00 0.00 0.00 96 1012.9
20260905113944 75 297 0.0 1.0 0.00 0.00 0.00 97 1013.0
20260905113440 74 321 0.0 0.0 0.00 0.00 0.00 98 1012.9
20260905112935 74 124 0.0 1.0 0.00 0.00 0.00 99 1012.9
20260905112431 73 55 0.0 2.0 0.00 0.00 0.00 99 1012.8
20260905111925 73 319 1.0 2.0 0.00 0.00 0.00 99 1012.6
20260905111420 73 66 0.0 1.0 0.00 0.00 0.00 99 1012.6
20260905110914 73 124 0.0 1.0 0.00 0.00 0.00 99 1012.8
20260905110408 73 47 0.0 1.0 0.00 0.00 0.00 99 1012.6
20260905105903 73 69 0.0 2.0 0.00 0.00 0.00 99 1012.6
20260905105402 72 55 0.0 0.0 0.00 0.00 0.00 99 1012.5
20260905104856 72 15 0.0 1.0 0.00 0.00 0.00 99 1012.3
20260905104353 72 6 0.0 1.0 0.00 0.00 0.00 99 1012.4